Date String (YYYY-MM-DD hh:mm:ss) UTC,Instrument flags,absolute air pressure of the measurement (hPa),sample flow rate (lpm),inlet stack bypass flow (lpm),air temperature of the measurement (°C),ambient temperature measured by the external sensor (°C),aerosol sample conditioner tube jacket temperature (°C),OPC LED temperature (°C),internal box temperature (°C),relative humidity of the measurement (%),span deviation,mass concentration of particles derived from Lorenz-Mie calculation of OPC scattering (μg/m³),mass concentration of particles derived from Lorenz-Mie calculation of OPC scattering (μg/m³),mass concentration of particles derived from Lorenz-Mie calculation of OPC scattering (μg/m³)
DateTimeUTC,F1_M11,P_M11,Q1_M11,Q2_M11,T1_M11,T2_M11,T3_M11,T4_M11,T5_M11,U1_M11,ZSPAN_M11,X2_M11,X0_M11,X1_M11
2024-04-03 11:00:00,SystemResetWarning,0830.8,5.00,000.00,021.9,021.1,000.0,030.4,023.7,14.9,0000.0,0002.19,0003.39,0001.70
2024-04-03 11:01:00,SystemResetWarning,0830.8,5.00,000.00,021.8,021.1,000.0,030.4,023.7,14.8,0000.0,0002.21,0003.49,0001.70
2024-04-03 11:02:00,SystemResetWarning,0830.8,5.00,000.00,021.8,021.2,000.0,030.4,023.7,15.3,0000.0,0002.22,0003.53,0001.69
2024-04-03 11:03:00,SystemResetWarning,0830.8,5.00,000.00,021.9,021.1,000.0,030.4,023.7,15.2,0000.0,0002.24,0003.54,0001.69
2024-04-03 11:04:00,SystemResetWarning,0830.8,5.00,000.00,021.9,021.1,000.0,030.4,023.7,14.9,0000.0,0002.26,0003.52,0001.68
2024-04-03 11:05:00,SystemResetWarning,0830.8,5.00,000.00,021.8,021.1,000.0,030.4,023.7,14.8,0000.0,0002.36,0003.73,0001.69
2024-04-03 11:06:00,SystemResetWarning,0830.8,5.00,000.00,021.8,021.1,000.0,030.4,023.7,14.7,0000.0,0002.40,0003.79,0001.71
2024-04-03 11:07:00,SystemResetWarning,0830.8,5.00,000.00,021.8,021.1,000.0,030.4,023.7,14.7,0000.0,0002.41,0003.81,0001.70
2024-04-03 11:08:00,SystemResetWarning,0830.7,4.99,000.00,021.8,021.1,000.0,030.4,023.7,14.8,0000.0,0002.50,0004.02,0001.72
2024-04-03 11:09:00,SystemResetWarning,0830.7,5.01,000.00,021.8,021.1,000.0,030.4,023.6,14.8,0000.0,0002.55,0004.15,0001.74
2024-04-03 11:10:00,SystemResetWarning,0830.8,5.00,000.00,021.8,021.1,000.0,030.4,023.6,14.8,0000.0,0002.53,0004.18,0001.74
2024-04-03 11:11:00,SystemResetWarning,0830.8,5.00,000.00,021.8,021.1,000.0,030.4,023.6,14.8,0000.0,0002.53,0004.15,0001.74
2024-04-03 11:12:00,SystemResetWarning,0830.8,5.00,000.00,021.8,021.1,000.0,030.4,023.6,14.9,0000.0,0002.51,0004.21,0001.74
2024-04-03 11:13:00,SystemResetWarning,0830.8,5.01,000.00,021.8,021.1,000.0,030.4,023.6,14.9,0000.0,0002.55,0004.34,0001.76
2024-04-03 11:14:00,SystemResetWarning,0830.8,5.00,000.00,021.8,021.1,000.0,030.4,023.6,14.8,0000.0,0002.57,0004.34,0001.77
2024-04-03 11:15:00,SystemResetWarning,0830.8,5.00,000.00,021.8,021.1,000.0,030.3,023.6,14.7,0000.0,0002.51,0004.21,0001.78
2024-04-03 11:16:00,SystemResetWarning,0830.8,5.00,000.00,021.8,021.1,000.0,030.3,023.6,14.8,0000.0,0002.44,0005.10,0001.79
2024-04-03 11:17:00,SystemResetWarning,0830.8,5.00,000.00,021.8,021.1,000.0,030.3,023.6,14.7,0000.0,0002.39,0005.00,0001.79
2024-04-03 11:18:00,SystemResetWarning,0830.8,5.00,000.00,021.8,021.1,000.0,030.3,023.6,14.8,0000.0,0002.37,0004.92,0001.79
2024-04-03 11:19:00,SystemResetWarning,0830.8,5.00,000.00,021.8,021.1,000.0,030.3,023.6,14.8,0000.0,0002.36,0004.87,0001.79
2024-04-03 11:20:00,SystemResetWarning,0830.8,5.00,000.00,021.8,021.1,000.0,030.3,023.6,14.8,0000.0,0002.31,0004.74,0001.79
2024-04-03 11:21:00,SystemResetWarning,0830.8,5.00,000.00,021.8,021.1,000.0,030.3,023.6,14.8,0000.0,0002.33,0004.71,0001.80
2024-04-03 11:22:00,SystemResetWarning,0830.8,5.00,000.00,021.8,021.1,000.0,030.3,023.6,14.8,0000.0,0002.34,0004.76,0001.81
2024-04-03 11:23:00,SystemResetWarning,0830.8,5.00,000.00,021.8,021.1,000.0,030.3,023.6,14.8,0000.0,0002.30,0004.56,0001.82
2024-04-03 11:24:00,SystemResetWarning,0830.8,5.00,000.00,021.8,021.1,000.0,030.3,023.6,14.8,0000.0,0002.27,0004.39,0001.81
2024-04-03 11:25:00,SystemResetWarning,0830.8,5.00,000.00,021.8,021.1,000.0,030.3,023.6,14.8,0000.0,0002.24,0004.94,0001.81
2024-04-03 11:26:00,SystemResetWarning,0830.8,5.00,000.00,021.8,021.1,000.0,030.3,023.6,14.8,0000.0,0002.23,0004.98,0001.80
2024-04-03 11:27:00,SystemResetWarning,0830.8,5.00,000.00,021.8,021.0,000.0,030.3,023.6,14.8,0000.0,0002.20,0003.85,0001.79
2024-04-03 11:28:00,SystemResetWarning,0830.9,5.00,000.00,021.7,021.1,000.0,030.3,023.6,14.7,0000.0,0002.22,0004.72,0001.79
2024-04-03 11:29:00,SystemResetWarning,0830.9,5.00,000.00,021.7,021.1,000.0,030.3,023.6,14.7,0000.0,0002.25,0005.11,0001.79
2024-04-03 11:30:00,SystemResetWarning,0830.9,5.00,000.00,021.7,021.1,000.0,030.3,023.6,14.7,0000.0,0002.28,0005.24,0001.78
2024-04-03 11:31:00,SystemResetWarning,0830.9,5.00,000.00,021.7,021.1,000.0,030.3,023.6,14.7,0000.0,0002.28,0005.29,0001.76
2024-04-03 11:32:00,SystemResetWarning,0830.9,5.00,000.00,021.7,021.1,000.0,030.3,023.6,14.7,0000.0,0002.26,0005.27,0001.75
2024-04-03 11:33:00,SystemResetWarning,0830.9,5.00,000.00,021.7,021.1,000.0,030.3,023.6,14.7,0000.0,0002.28,0005.38,0001.75
2024-04-03 11:34:00,SystemResetWarning,0830.9,5.00,000.00,021.7,021.1,000.0,030.3,023.6,14.7,0000.0,0002.32,0005.57,0001.74
2024-04-03 11:35:00,SystemResetWarning,0830.9,4.99,000.00,021.7,021.0,000.0,030.3,023.6,14.7,0000.0,0002.42,0005.80,0001.75
2024-04-03 11:36:00,SystemResetWarning,0830.9,4.99,000.00,021.7,021.0,000.0,030.3,023.5,15.0,0000.0,0002.44,0005.46,0001.75
2024-04-03 11:37:00,SystemResetWarning,0831.0,5.00,000.00,021.7,021.0,000.0,030.3,023.5,14.9,0000.0,0002.45,0005.16,0001.77
2024-04-03 11:38:00,SystemResetWarning,0831.1,5.01,000.00,021.7,021.0,000.0,030.3,023.5,14.9,0000.0,0002.49,0005.30,0001.76
2024-04-03 11:39:00,SystemResetWarning,0831.1,5.01,000.00,021.7,021.0,000.0,030.3,023.5,14.9,0000.0,0002.48,0004.95,0001.76
2024-04-03 11:40:00,SystemResetWarning,0831.1,5.00,000.00,021.7,021.0,000.0,030.3,023.5,15.0,0000.0,0002.49,0004.23,0001.76
2024-04-03 11:41:00,SystemResetWarning,0831.1,4.99,000.00,021.7,021.0,000.0,030.3,023.5,15.0,0000.0,0002.45,0004.18,0001.76
2024-04-03 11:42:00,SystemResetWarning,0831.1,4.99,000.00,021.7,021.0,000.0,030.3,023.5,14.9,0000.0,0002.46,0005.09,0001.77
2024-04-03 11:43:00,SystemResetWarning,0831.1,5.00,000.00,021.7,020.9,000.0,030.3,023.5,14.8,0000.0,0002.49,0005.84,0001.77
2024-04-03 11:44:00,SystemResetWarning,0831.1,5.01,000.00,021.7,020.9,000.0,030.2,023.5,14.8,0000.0,0002.52,0005.88,0001.78
2024-04-03 11:45:00,SystemResetWarning,0831.1,5.00,000.00,021.7,020.9,000.0,030.2,023.5,14.9,0000.0,0002.48,0005.71,0001.78
2024-04-03 11:46:00,SystemResetWarning,0831.1,4.99,000.00,021.7,020.9,000.0,030.2,023.5,15.0,0000.0,0002.44,0005.61,0001.78
2024-04-03 11:47:00,SystemResetWarning,0831.2,4.99,000.00,021.7,020.9,000.0,030.2,023.5,15.0,0000.0,0002.40,0005.53,0001.78
2024-04-03 11:48:00,SystemResetWarning,0831.1,4.99,000.00,021.7,020.9,000.0,030.2,023.5,14.8,0000.0,0002.43,0005.63,0001.76
2024-04-03 11:49:00,SystemResetWarning,0831.1,4.99,000.00,021.7,020.9,000.0,030.2,023.5,14.8,0000.0,0002.44,0005.89,0001.77
2024-04-03 11:50:00,SystemResetWarning,0831.1,5.01,000.00,021.7,020.9,000.0,030.2,023.5,14.9,0000.0,0002.44,0006.14,0001.76
2024-04-03 11:51:00,SystemResetWarning,0831.1,5.01,000.00,021.7,020.9,000.0,030.2,023.5,15.0,0000.0,0002.43,0006.09,0001.76
2024-04-03 11:52:00,SystemResetWarning,0831.2,5.01,000.00,021.7,021.0,000.0,030.2,023.5,14.9,0000.0,0002.42,0005.96,0001.77
2024-04-03 11:53:00,SystemResetWarning,0831.1,4.99,000.00,021.7,021.0,000.0,030.2,023.5,14.9,0000.0,0002.41,0004.90,0001.78
2024-04-03 11:54:00,SystemResetWarning,0831.1,4.99,000.00,021.7,021.0,000.0,030.2,023.5,14.9,0000.0,0002.43,0004.31,0001.79
2024-04-03 11:55:00,SystemResetWarning,0831.1,5.00,000.00,021.7,021.0,000.0,030.2,023.5,14.9,0000.0,0002.45,0004.40,0001.79
2024-04-03 11:56:00,SystemResetWarning,0831.2,4.99,000.00,021.7,021.0,000.0,030.2,023.5,14.9,0000.0,0002.49,0004.59,0001.78
2024-04-03 11:57:00,SystemResetWarning,0831.1,5.01,000.00,021.7,020.9,000.0,030.2,023.4,14.8,0000.0,0002.48,0004.67,0001.78
2024-04-03 11:58:00,SystemResetWarning,0831.2,5.00,000.00,021.6,020.9,000.0,030.2,023.5,14.8,0000.0,0002.53,0004.79,0001.78
2024-04-03 11:59:00,SystemResetWarning,0831.1,5.00,000.00,021.6,020.9,000.0,030.2,023.5,14.8,0000.0,0002.51,0004.73,0001.79
